Miscellaneous Local Product
Issued by NWS Hastings, NE

Home | Current Version | Previous Version | Graphics & Text | Print | Product List | Glossary On
Versions: 1 2 3 4 5 6 7 8 9 10 11 12 13 14 15 16 17 18 19 20 21 22 23 24 25 26 27 28 29 30 31 32 33 34 35 36 37 38 39 40 41 42 43 44 45 46 47 48 49 50
000
AXUS43 KGID 231602
MISGRI

GID CWA HOURLY WEATHER ROUNDUP
NATIONAL WEATHER SERVICE HASTINGS NE
1000 AM CST TUE DEC 23 2014

NOTE: "FAIR" INDICATES FEW OR NO CLOUDS BELOW 12,000 FEET WITH NO
SIGNIFICANT WEATHER AND/OR OBSTRUCTIONS TO VISIBILITY.

...SOUTH CENTRAL NEBRASKA...

CITY           SKY/WX    TMP DP  RH WIND       PRES   REMARKS
GRAND ISLAND   LGT SNOW  33  30  88 N20G29    29.77R FOG     WCI  21
HASTINGS       LGT SNOW  32  28  85 NW22      29.77R FOG     WCI  19
KEARNEY        CLOUDY    32  25  74 NW26G33   29.80R WCI  18
ORD            NOT AVBL
YORK           LGT SNOW  32  32 100 N12       29.73R WCI  23
AURORA         LGT SNOW  33  32  97 N17       29.74R WCI  22
LEXINGTON      CLOUDY    31  26  81 N31G38    29.85R WCI  17
HOLDREGE       CLOUDY    30  26  83 NW21G28   29.81R WCI  17
HEBRON         LGT SNOW  34  32  91 NW15G23   29.74R WCI  25

...NEBRASKA PANHANDLE...

CITY           SKY/WX    TMP DP  RH WIND       PRES   REMARKS
CHADRON        HVY SNOW  27  25  92 N6        30.10R VSB 1/4 WCI  20
ALLIANCE       CLOUDY    25  22  88 N20       30.02R FOG     WCI  11
SCOTTSBLUFF    PTSUNNY   31  24  75 NW25G40   30.07R WCI  17
SIDNEY         HVY SNOW  28  22  78 N39G51    30.00R VSB 1/4 WCI  10

...WESTERN AND NORTH CENTRAL NEBRASKA...

CITY           SKY/WX    TMP DP  RH WIND       PRES   REMARKS
VALENTINE      LGT SNOW  27  22  81 NW26G33   29.95R WCI  12
AINSWORTH      CLOUDY    28  25  89 NW26G36   29.91R FOG     WCI  12
ONEILL         LGT SNOW  33  32  98 NW22G29   29.82R VSB 1   WCI  21
BROKEN BOW     LGT SNOW  30  25  81 N29G41    29.84R VSB 1   WCI  15
IMPERIAL       SNOW      28  22  78 N32G41    29.94R VSB 1/2 WCI  12
NORTH PLATTE   MIX PCPN  28  20  71 N23G36    29.91R WCI  14
MCCOOK         LGT SNOW  29  23  78 N29G37    29.89R WCI  14

...EASTERN NEBRASKA...

CITY           SKY/WX    TMP DP  RH WIND       PRES   REMARKS
NORFOLK        LGT SNOW  34  32  92 N20       29.76R FOG     WCI  23
SO SIOUX CITY  LGT SNOW  35  32  88 N13       29.74R FOG     WCI  26
TEKAMAH        LGT SNOW  35  33  92 N18       29.72R FOG     WCI  24
COLUMBUS       CLOUDY    34  28  80 N15       29.76R WCI  24
ALBION         LGT SNOW  34  30  88 N16G22    29.77R WCI  23
OMAHA EPPLEY   DRIZZLE   35  33  92 N14       29.71R FOG     WCI  26
OFFUTT AFB     CLOUDY    36  34  90 N10       29.68R WCI  29
MILLARD        LGT RAIN  36  33  89 N9        29.69R WCI  29
LINCOLN        LGT RAIN  36  33  89 N16       29.72R WCI  26
NEBRASKA CITY  CLOUDY    35  35 100 NW10      29.66R WCI  28
BEATRICE       CLOUDY    35  33  93 NW15      29.70R WCI  25
FALLS CITY     CLOUDY    37  32  82 W10       29.70R WCI  30

...NORTHERN KANSAS...

CITY           SKY/WX    TMP DP  RH WIND       PRES   REMARKS
GOODLAND       LGT SNOW  28  25  88 N28G40    29.92R FOG     WCI  13
HILL CITY      LGT SNOW  31  25  78 NW24G31   29.86R WCI  17
NORTON         LGT SNOW  30  23  74 NW26G33   29.85R WCI  16
PHILLIPSBURG   LGT SNOW  34  28  80 NW20G30   29.84R WCI  22
SMITH CENTER   LGT SNOW  30  28  93 NW18      29.81R VSB 1   WCI  18
BELOIT         CLOUDY    34  30  86 NW16G23   29.79R WCI  23
HAYS           CLOUDY    32  19  59 NW21G32   29.83R WCI  20
RUSSELL        MIX PCPN  32  26  78 NW23G31   29.81R WCI  19
CONCORDIA      LGT SNOW  33  30  88 NW17G24   29.75R FOG     WCI  22
SALINA         CLOUDY    37  28  70 NW20      29.78R WCI  27
TOPEKA         SUNNY     40  31  70 W12       29.74R WCI  33



USA.gov is the U.S. government's official web portal to all federal, state and local government web resources and services.